Dauntless Aviation
Greetings, Guest! To participate, [sign up for a free account] or [log in]
Airports South America Uruguay

Hospital Policial

Montevideo, URUGUAY

Airport Info
Edit

Location

Latitude / Longitude: 34°52'4"S / 56°9'6"W
  34°52.068'S / 56°9.114'W
  -34.8678 / -56.1519
Satellite photo at:
Airport distance calculator
From:
Weather Reports

METAR

SUAA
7.8nm NW
SUAA 221330Z 26009KT 5000 RA BKN015 19/17 Q1016
SUMU
8.1nm NE
SUMU 221325Z 23005KT 7000 TS RS FEW040CB BKN070 16/09 Q1017

TAF

SUAA
7.8nm NW
SUAA 221115 2212/2312 20010KT 9999 FEW023 TX20/2219Z TN10/2309Z PROB30 TEMPO 2212/2218 7000 SHRA BKN017 BECMG 2302/2304 04005KT BECMG 2305/2307 33008KT
SUMU
8.1nm NE
SUMU 221115 2212/2312 20010KT 9999 FEW023 TX20/2219Z TN10/2309Z PROB30 TEMPO 2212/2218 7000 SHRA BKN017 BECMG 2302/2304 04005KT BECMG 2305/2307 33008KT
Safelog

 

Dauntless Aviation

© 2007-2014 Dauntless Aviation, all rights reserved
Information provided via PilotNav comes from a variety of official and unofficial data sources. As errors are possible, do not use PilotNav for primary flight planning purposes. Verify any information that you receive via PilotNav with current and canonical charts and other official documents. The material in this database is subject to database copyrights held by Dauntless Aviation and may not be copied without the express permission of Dauntless Aviation - licenses for use of part of all of this data are available for purchase; enquire via the Dauntless Aviation helpdesk. A number of mechanisms and markers exist in the database to protect against and identify infringement / copyright. Automated queries against this website are stictly prohibited, and all activity is logged and analyzed.